095  
ASUS41 KBOX 150410  
RWRBOX  
 
REGIONAL WEATHER ROUNDUP  
NATIONAL WEATHER SERVICE TAUNTON MA  
1100 PM EST THU DEC 14 2017  
 
NOTE: "FAIR" INDICATES FEW OR NO CLOUDS BELOW 12,000 FEET WITH NO  
SIGNIFICANT WEATHER AND/OR S TO VISIBILITY
.  
 
MAZALL-150500-  
EASTERN MASSACHUSETTS  
 
CITY SKY/WX TMP DP RH WIND PRES REMARKS
 
BOSTON CLEAR 20 5 52 W15G22 29.99R WCI 6  
BEVERLY CLEAR 18 3 52 W10 29.97R WCI 6  
LAWRENCE CLEAR 19 4 51 W13 29.98R WCI 6  
BEDFORD CLEAR 16 3 56 SW6 29.98R WCI 7  
BLUE HILL N/A 15 2 56 W15 29.94R WCI 0  
NORWOOD CLEAR 19 4 51 W9 30.00R WCI 8  
MARSHFIELD CLEAR 19 3 49 VRB5G13 29.99R WCI 13  
PLYMOUTH CLEAR 18 3 52 W10 30.00R WCI 6  
TAUNTON CLEAR 17 4 56 W5 30.01R WCI 10  
NEW BEDFORD CLEAR 18 5 57 W10 30.01R WCI 6  

 
 
MAZALL-150500-  
CAPE COD AND THE ISLANDS  
 
CITY SKY/WX TMP DP RH WIND PRES REMARKS
 
FALMOUTH CLEAR 18 3 53 W7G15 30.01R WCI 8  
HYANNIS CLEAR 19 3 49 W9 29.98R WCI 8  
CHATHAM CLEAR 18 7 62 W5 29.99R WCI 11  
PROVINCETOWN CLEAR 23 10 57 W20G26 29.98R WCI 8  
NANTUCKET CLEAR 23 11 60 W14 29.99R WCI 11  
MARTHAS VNYRD CLEAR N/A N/A N/A NW8 30.01R  

 
 
MAZALL-150500-  
CENTRAL AND WESTERN MASSACHUSETTS  
 
CITY SKY/WX TMP DP RH WIND PRES REMARKS
 
WORCESTER CLEAR 12 1 61 W13 29.91R WCI -3  
FITCHBURG CLEAR 18 5 57 NW8 29.97R WCI 8  
ORANGE NOT AVBL  
SPRINGFIELD CLEAR 16 3 58 SW3 30.01R  
WESTFIELD CLEAR 16 5 62 NW12G17 30.01R WCI 3  
NORTH ADAMS CLOUDY 15 5 64 W16 30.01R WCI -1  
PITTSFIELD CLOUDY 13 3 64 SW5 29.96R WCI 5  

 
 
RIZALL-150500-  
RHODE ISLAND  
 
CITY SKY/WX TMP DP RH WIND PRES REMARKS
 
PROVIDENCE CLEAR 18 5 57 W9 30.03R WCI 7  
NEWPORT CLEAR 19 6 57 W15G23 30.02R WCI 5  
BLOCK ISLAND CLEAR 22 10 60 NW14G21 30.06R WCI 9  
SMITHFIELD CLEAR 14 5 67 W8 29.99R WCI 3  
WESTERLY PTCLDY 19 4 51 W6 30.06R WCI 11  

 
 
CTZALL-150500-  
CONNECTICUT  
 
CITY SKY/WX TMP DP RH WIND PRES REMARKS
 
BRADLEY INTL PTCLDY 16 4 59 NW6 30.04R WCI 7  
HARTFORD CLEAR 18 4 54 S3 30.07R  
BRIDGEPORT PTCLDY 21 3 45 NW13 30.08R WCI 9  
DANBURY CLOUDY 18 2 49 NW6 30.06R WCI 10  
GROTON PTCLDY 19 4 51 NW8 30.07R WCI 9  
NEW HAVEN PTCLDY 21 5 50 NW7 30.08R WCI 12  
CHESTER FAIR 16 3 57 NW5 30.03R WCI 9  
MERIDEN CLEAR 13 4 67 CALM 30.07R  
WILLIMANTIC CLEAR 17 4 56 SW6 30.05R WCI 9  
OXFORD CLEAR 12 3 67 W6 30.03R WCI 3  

 
 
MEZ002-015-021-024-NHZ003-005-008-011-012-014-VTZ005-008-150500-  
NORTHERN NEW ENGLAND  
 
CITY SKY/WX TMP DP RH WIND PRES REMARKS
 
PORTLAND ME CLEAR 16 1 51 W10G17 29.91R WCI 4  
BANGOR ME CLEAR 8 1 73 S3 29.84R  
CONCORD NH PTCLDY 13 -1 54 CALM 29.94R  
MANCHESTER NH CLEAR 16 2 54 SW6 29.94R WCI 7  
NASHUA NH CLEAR 10 0 63 CALM 29.97  
PORTSMOUTH NH CLEAR 17 1 50 W10 29.93R WCI 4  
JAFFREY NH CLEAR 10 4 76 W3 29.90R  
KEENE NH CLEAR 3 0 87 CALM 29.97R  
BURLINGTON VT PTCLDY 12 -2 53 S5 29.97R WCI 4  
MT. WASHINGTON BLWGSNOW -17 -17 100 W71G79 N/A VSB 1/16WCI -59  

 
 
NYZ052-076-150500-  
EASTERN NEW YORK  
 
CITY SKY/WX TMP DP RH WIND PRES REMARKS
 
ALBANY MOCLDY 15 4 61 SW3 30.06R  
NEW YORK CITY CLOUDY 25 8 48 NW9 30.09S WCI 15  

 
 
ANZALL-150500-  
MARINE OBSERVATIONS  
 
STATION/POSITION TIME TEMP WIND PRES VSBY WAVE
 
AIR SEA DIR/SP/G HT/PER  
(UTC) (F) (DEG/KT/KT) (MB) (MI) (FT/S)  
BOSTON BUOY 0350 25 47 270/ 21/ 27 1014.3R 4/ 4  
BUZZARDS BAY 0300 23 300/ 20/ 23 1016.7R  
NANTUCKET SOUND 0350 25 43 310/ 19/ 25 1015.4R 3/ 4  
MASS BAY-STELLWA 0304 24 47 300/ 21/ 27 1013.5R 4/ 4  
ISLE OF SHOALS 0300 21 260/ 19/ 24 1012.9R  
S OF BLOCK IS 0343 53 N/A 8/ 5  

 
   
.....................KEY......................
 
 
SKY/WX - SKY CONDITION/PRESENT WEATHER  
TMP - TEMPERATURE IN FAHRENHEIT  
DWPT - DEWPOINT IN FAHRENHEIT  
RH - RELATIVE HUMIDITY IN PERCENT  
WIND - DIRECTION AND SPEED IN MPH  
PRES - MEAN SEA LEVEL PRESSURE IN INCHES OF HG  
WCI - WIND CHILL INDEX  
VSB - VISIBILITY IN MILES  
HX - HEAT INDEX  
TC - TEMPERATURE IN CELSIUS  
VRB - VARIABLE WIND DIRECTION  
N/A - NOT AVAILABLE  
 
 
CLICK HERE TO GO TO PREVIOUS BULLETINS.

The Nexlab MA Page
The Nexlab RI Page
The Nexlab NH Page
The Nexlab CT Page Main Text Page